Location: Neuvy Saint Sepulchre
(46.5953°N, 1.8122°E)
Time: 13:16:13
(UTC+01:00)

Envisat - Pass Details

Date: 27 October 2021
Orbit: 764 x 766 km, 98.2° (Epoch: 29 November)

Event Time Altitude Azimuth Distance (km) Brightness Sun altitude
Rises 06:06:08 0° 24° (NNE) 3,242 6.7 -24.8°
Reaches altitude 10° 06:08:48 10° 36° (NE) 2,311 6.0 -24.3°
Maximum altitude 06:13:04 26° 93° (E) 1,461 5.1 -23.6°
Drops below altitude 10° 06:17:17 10° 150° (SSE) 2,295 5.7 -22.9°
Sets 06:19:56 0° 163° (SSE) 3,216 6.4 -22.4°
